Weather History for KAUS - December, 2012

Change the Weather History Date:

Saturday, December 8, 2012

  Actual Average Record
Temperature  
Mean Temperature 70 °F 51 °F  
Max Temperature 83 °F 65 °F 83 °F (2012)
Min Temperature 56 °F 38 °F 23 °F (2011)
Degree Days  
Heating Degree Days 0 14  
Month to date heating degree days 16 107  
Since 1 July heating degree days 270 392  
Cooling Degree Days 5 0  
Month to date cooling degree days 32 5  
Year to date cooling degree days 3158 2746  
Growing Degree Days 22 (Base 50)    
Moisture  
Dew Point 63 °F    
Average Humidity 74    
Maximum Humidity 97    
Minimum Humidity 51    
Precipitation  
Precipitation 0.00 in 0.06 in 1.06 in (2001)
Month to date precipitation 0.01 0.62  
Year to date precipitation 34.31 33.52  
Snow  
Snow 0.00 in - - ()
Month to date snowfall 0.0  
Since 1 July snowfall 0.0  
Snow Depth 0.00 in    
Sea Level Pressure  
Sea Level Pressure 29.83 in    
Wind  
Wind Speed 6 mph (South)    
Max Wind Speed 16 mph    
Max Gust Speed 21 mph    
Visibility 9 miles    
Events      
T = Trace of Precipitation, MM = Missing Value Source: NWS Daily Summary

Daily Weather History Graph

Daily Weather History Graph

Search for Another Location

Airport or City:

Trip Planner

Search our weather history database for the weather conditions in past years. The results will help you decide how hot, cold, wet, or windy it might be!

Date:

Astronomy

Dec. 08, 2012 Rise Set
Actual Time 7:15 AM CST 5:30 PM CST
Civil Twilight 6:48 AM CST 5:56 PM CST
Nautical Twilight 6:19 AM CST 6:26 PM CST
Astronomical Twilight 5:49 AM CST 6:55 PM CST
Moon 1:59 AM CST (12/8) 1:45 PM CST (12/8)
Length of Visible Light 11h 08m
Length of Day
10h 15m
Waning Crescent, 28% of the Moon is Illuminated
Dec 8
Waning Crescent
Dec 13
New
Dec 19
First Quarter
Dec 28
Full
Jan 4
Last Quarter

Hourly Weather History & Observations

Time (CST) Temp. Heat Index Dew Point Humidity Pressure Visibility Wind Dir Wind Speed Gust Speed Precip Events Conditions
12:39 AM 57.2 °F - 57.2 °F 100% 29.84 in 8.0 mi Calm Calm - N/A   Mostly Cloudy
12:53 AM 61.0 °F - 59.0 °F 93% 29.83 in 9.0 mi Calm Calm - N/A   Overcast
1:53 AM 63.0 °F - 60.1 °F 90% 29.82 in 10.0 mi Calm Calm - N/A   Overcast
2:53 AM 64.0 °F - 60.1 °F 87% 29.82 in 10.0 mi Calm Calm - N/A   Overcast
3:53 AM 64.9 °F - 62.1 °F 90% 29.83 in 10.0 mi Calm Calm - N/A   Overcast
4:53 AM 64.4 °F - 62.6 °F 94% 29.85 in 9.0 mi Calm Calm - N/A   Overcast
5:53 AM 66.0 °F - 62.1 °F 87% 29.85 in 8.0 mi Calm Calm - N/A   Overcast
6:53 AM 64.9 °F - 62.1 °F 90% 29.87 in 9.0 mi Calm Calm - N/A   Overcast
7:53 AM 66.9 °F - 64.0 °F 90% 29.88 in 3.0 mi Calm Calm - N/A   Overcast
8:53 AM 69.1 °F - 66.0 °F 90% 29.88 in 3.0 mi South 4.6 mph - N/A   Overcast
9:53 AM 73.0 °F - 66.0 °F 79% 29.88 in 3.0 mi SSW 10.4 mph - N/A   Overcast
10:27 AM 75.2 °F - 66.2 °F 73% 29.90 in 9.0 mi South 13.8 mph - N/A   Overcast
10:53 AM 75.9 °F - 66.0 °F 71% 29.88 in 9.0 mi South 10.4 mph - N/A   Overcast
11:34 AM 77.0 °F - 66.2 °F 69% 29.88 in 10.0 mi South 11.5 mph - N/A   Overcast
11:53 AM 75.9 °F - 64.9 °F 69% 29.86 in 10.0 mi SSW 10.4 mph - N/A   Overcast
12:53 PM 79.0 °F - 64.9 °F 62% 29.82 in 10.0 mi SSW 12.7 mph - N/A   Overcast
1:53 PM 81.0 °F 82.2 °F 63.0 °F 54% 29.78 in 10.0 mi SSW 11.5 mph - N/A   Overcast
2:53 PM 82.0 °F 83.0 °F 62.1 °F 51% 29.76 in 10.0 mi SSW 12.7 mph 20.7 mph N/A   Mostly Cloudy
3:53 PM 80.6 °F 81.5 °F 60.8 °F 51% 29.78 in 10.0 mi SSW 11.5 mph 19.6 mph N/A   Overcast
4:53 PM 79.0 °F - 61.0 °F 54% 29.77 in 10.0 mi SSW 6.9 mph - N/A   Overcast
5:53 PM 75.0 °F - 61.0 °F 62% 29.78 in 10.0 mi SSW 3.5 mph - N/A   Overcast
6:53 PM 73.0 °F - 61.0 °F 66% 29.79 in 10.0 mi Calm Calm - N/A   Mostly Cloudy
7:53 PM 71.1 °F - 62.1 °F 73% 29.80 in 10.0 mi SSE 4.6 mph - N/A   Mostly Cloudy
8:53 PM 71.6 °F - 62.6 °F 73% 29.83 in 10.0 mi South 8.1 mph - N/A   Mostly Cloudy
9:53 PM 72.0 °F - 66.0 °F 81% 29.82 in 10.0 mi South 12.7 mph - N/A   Mostly Cloudy
10:32 PM 71.6 °F - 66.2 °F 83% 29.84 in 9.0 mi South 9.2 mph - N/A   Mostly Cloudy
10:53 PM 71.1 °F - 66.0 °F 84% 29.83 in 9.0 mi South 11.5 mph 19.6 mph N/A   Overcast
11:41 PM 71.6 °F - 66.2 °F 83% 29.85 in 9.0 mi South 12.7 mph - N/A   Overcast
11:53 PM 71.1 °F - 66.0 °F 84% 29.83 in 9.0 mi South 10.4 mph - N/A   Overcast